Location: Starlight Observatory
(38.4029°N, 85.8936°W)
Time: 23:49:29
(UTC-04:00)

Iridium 84 - Visible Passes

Search period start: 16 April 2014 00:00
Search period end: 26 April 2014 00:00
Orbit: 776 x 779 km, 86.4° (Epoch: 16 April)

Date Brightness Start Highest point End Pass type
(mag) Time Alt. Az. Time Alt. Az. Time Alt. Az.
16 Apr 8.5 06:19:59 10° NNE 06:23:52 21° ENE 06:27:43 10° SE visible
16 Apr 8.6 20:56:35 10° WSW 21:00:13 19° WNW 21:03:52 10° NNW visible
17 Apr 9.1 05:48:42 10° ENE 05:49:59 11° ENE 05:51:15 10° E visible
19 Apr 7.8 06:19:34 10° NNE 06:24:07 30° E 06:28:38 10° SE visible
19 Apr 9.0 20:58:13 10° W 21:00:31 13° WNW 21:02:51 10° NW visible
20 Apr 8.6 05:47:06 10° NE 05:50:19 16° ENE 05:53:31 10° ESE visible
22 Apr 6.9 06:19:21 10° NNE 06:24:19 43° E 06:29:14 10° SSE visible
23 Apr 8.1 05:46:27 10° NNE 05:50:36 24° E 05:54:43 10° SE visible
24 Apr 8.7 05:14:32 10° NE 05:16:45 13° ENE 05:18:57 10° E visible
25 Apr 6.1 06:19:16 10° N 06:24:28 64° E 06:29:37 10° SSE visible
